Stations météo

réclame
Mon MeteoGroup
Stockholm/observat., Suède (2484): Température de l'air & dewpoint: 28.07.2020 13:00:00 - 03.08.2020 13:00:00 (CEST)Stockholm/observat., Suède (2484): reduced air pressure: 28.07.2020 13:00:00 - 03.08.2020 13:00:00 (CEST)
Date & Time tt [°C] td [°C] ppp [hPa]
03.08.2020 13:00:00 21,1 10,2 1005,9
03.08.2020 12:00:00 18,9 10,2 1005,9
03.08.2020 11:00:00 18,2 10,1 1005,9
03.08.2020 10:00:00 17,6 10,2 1005,8
03.08.2020 09:00:00 16,6 10,4 1006,0
03.08.2020 08:00:00 15,6 10,8 1006,0
03.08.2020 07:00:00 15,0 11,2 1005,7
03.08.2020 06:00:00 14,5 11,6 1005,9
03.08.2020 05:00:00 14,7 12,1 1005,8
03.08.2020 04:00:00 15,1 12,2 1005,8
03.08.2020 03:00:00 15,6 12,2 1006,0
03.08.2020 02:00:00 16,1 12,8 1006,1
03.08.2020 01:00:00 16,8 13,7 1006,0
03.08.2020 00:00:00 17,5 14,8 1006,0
02.08.2020 23:00:00 18,1 15,1 1005,8
02.08.2020 22:00:00 18,0 15,1 1005,8
02.08.2020 21:00:00 18,0 14,5 1005,9
02.08.2020 20:00:00 18,5 14,2 1006,1
02.08.2020 19:00:00 18,7 13,3 1006,7
02.08.2020 18:00:00 20,4 11,6 1006,9
02.08.2020 17:00:00 21,8 11,8 1007,4
02.08.2020 16:00:00 22,2 11,9 1007,9
02.08.2020 15:00:00 22,1 9,3 1008,6
02.08.2020 14:00:00 22,9 6,6 1008,7
02.08.2020 13:00:00 24,4 4,7 1008,9
02.08.2020 12:00:00 23,9 8,7 1009,3
02.08.2020 11:00:00 24,4 14,5 1009,7
02.08.2020 10:00:00 22,7 14,0 1010,1
02.08.2020 09:00:00 20,4 13,8 1010,3
02.08.2020 08:00:00 18,7 13,3 1010,9
02.08.2020 07:00:00 16,3 13,4 1011,4
02.08.2020 06:00:00 16,1 13,4 1011,7
02.08.2020 05:00:00 16,0 13,2 1012,1
02.08.2020 04:00:00 16,4 12,9 1012,6
02.08.2020 03:00:00 16,7 12,8 1013,0
02.08.2020 02:00:00 16,7 12,4 1013,5
02.08.2020 01:00:00 16,8 12,1 1014,2
02.08.2020 00:00:00 16,8 11,3 1014,5
01.08.2020 23:00:00 17,0 10,5 1014,9
01.08.2020 22:00:00 17,7 10,8 1015,2
01.08.2020 21:00:00 19,4 9,6 1015,2
01.08.2020 20:00:00 20,8 8,4 1015,5
01.08.2020 19:00:00 21,4 10,5 1015,9
01.08.2020 18:00:00 22,3 9,5 1016,0
01.08.2020 17:00:00 23,3 10,1 1016,2
01.08.2020 16:00:00 25,1 8,6 1016,3
01.08.2020 15:00:00 26,1 10,7 1016,7
01.08.2020 14:00:00 26,4 10,9 1017,0
01.08.2020 13:00:00 24,5 9,2 1017,5
01.08.2020 12:00:00 23,0 10,1 1017,8
01.08.2020 11:00:00 23,0 10,8 1017,9
01.08.2020 10:00:00 21,7 13,3 1017,8
01.08.2020 09:00:00 18,7 14,0 1017,9
01.08.2020 08:00:00 17,4 13,9 1017,8
01.08.2020 07:00:00 16,3 13,2 1017,7
01.08.2020 06:00:00 15,5 13,3 1017,6
01.08.2020 05:00:00 14,5 12,5 1017,8
01.08.2020 04:00:00 14,4 12,4 1017,8
01.08.2020 03:00:00 14,5 12,0 1018,0
01.08.2020 02:00:00 15,1 11,7 1017,9
01.08.2020 01:00:00 16,0 11,4 1017,9
01.08.2020 00:00:00 16,1 11,1 1017,9
31.07.2020 23:00:00 16,6 12,0 1017,7
31.07.2020 22:00:00 17,2 12,3 1017,6
31.07.2020 21:00:00 18,3 12,3 1017,2
31.07.2020 20:00:00 19,4 12,2 1016,7
31.07.2020 19:00:00 20,1 12,3 1016,6
31.07.2020 18:00:00 20,8 12,5 1016,4
31.07.2020 17:00:00 20,9 12,6 1016,1
31.07.2020 16:00:00 19,9 12,9 1015,9
31.07.2020 15:00:00 20,5 12,7 1015,5
31.07.2020 14:00:00 21,1 12,2 1015,1
31.07.2020 13:00:00 20,2 11,9 1014,8
31.07.2020 12:00:00 19,1 12,8 1014,4
31.07.2020 11:00:00 18,5 13,0 1014,1
31.07.2020 10:00:00 18,2 13,9 1013,2
31.07.2020 09:00:00 16,7 14,0 1012,4
31.07.2020 08:00:00 15,6 13,6 1011,7
31.07.2020 07:00:00 14,7 13,4 1010,8
31.07.2020 06:00:00 14,1 13,3 1009,9
31.07.2020 05:00:00 14,0 13,3 1008,8
31.07.2020 04:00:00 14,0 13,2 1007,9
31.07.2020 03:00:00 14,6 14,1 1006,1
31.07.2020 02:00:00 14,7 14,1 1004,8
31.07.2020 01:00:00 15,0 14,4 1004,0
31.07.2020 00:00:00 14,9 14,3 1003,6
30.07.2020 23:00:00 14,8 14,2 1003,4
30.07.2020 22:00:00 14,8 14,2 1003,5
30.07.2020 21:00:00 14,9 14,3 1003,4
30.07.2020 20:00:00 15,0 14,0 1003,3
30.07.2020 19:00:00 15,2 13,9 1003,7
30.07.2020 18:00:00 14,6 12,8 1003,9
30.07.2020 17:00:00 16,6 13,8 1003,9
30.07.2020 16:00:00 20,6 11,5 1003,4
30.07.2020 15:00:00 21,2 11,2 1003,0
30.07.2020 14:00:00 21,5 11,2 1003,5
30.07.2020 13:00:00 21,0 11,6 1003,6
30.07.2020 12:00:00 18,9 10,7 1003,7
30.07.2020 11:00:00 18,4 11,8 1003,8
30.07.2020 10:00:00 17,5 12,4 1003,7
30.07.2020 09:00:00 16,3 12,3 1003,5
30.07.2020 08:00:00 15,0 12,7 1003,1
30.07.2020 07:00:00 14,6 12,8 1002,6
30.07.2020 06:00:00 14,4 12,9 1002,2
30.07.2020 05:00:00 14,1 13,1 1001,6
30.07.2020 04:00:00 13,9 12,8 1001,1
30.07.2020 03:00:00 14,6 11,9 1001,5
30.07.2020 02:00:00 14,8 11,6 1002,0
30.07.2020 01:00:00 14,7 11,3 1002,6
30.07.2020 00:00:00 15,1 11,3 1003,0
29.07.2020 23:00:00 15,5 11,0 1003,4
29.07.2020 22:00:00 15,6 10,8 1003,8
29.07.2020 21:00:00 16,1 10,0 1004,0
29.07.2020 20:00:00 16,6 10,4 1004,2
29.07.2020 19:00:00 17,4 9,8 1004,4
29.07.2020 18:00:00 18,0 10,1 1004,6
29.07.2020 17:00:00 18,0 9,5 1004,8
29.07.2020 16:00:00 17,4 10,0 1005,1
29.07.2020 15:00:00 20,3 10,4 1004,8
29.07.2020 14:00:00 18,1 12,1 1005,2
29.07.2020 13:00:00 18,1 8,9 1005,1
29.07.2020 12:00:00 18,1 8,6 1005,2
29.07.2020 11:00:00 17,7 9,1 1005,2
29.07.2020 10:00:00 16,6 9,8 1005,0
29.07.2020 09:00:00 16,5 11,2 1004,6
29.07.2020 08:00:00 15,3 11,5 1004,3
29.07.2020 07:00:00 14,5 12,2 1004,1
29.07.2020 06:00:00 13,8 12,0 1004,2
29.07.2020 05:00:00 13,4 12,3 1004,2
29.07.2020 04:00:00 13,6 12,2 1004,2
29.07.2020 03:00:00 14,0 12,6 1003,9
29.07.2020 02:00:00 14,2 12,9 1003,7
29.07.2020 01:00:00 14,6 13,1 1003,5
29.07.2020 00:00:00 15,9 14,4 1003,4
28.07.2020 23:00:00 17,1 16,6 1002,8
28.07.2020 22:00:00 16,8 16,3 1003,3
28.07.2020 21:00:00 16,8 15,8 1004,0
28.07.2020 20:00:00 16,4 15,4 1004,3
28.07.2020 19:00:00 16,6 15,0 1005,6
28.07.2020 18:00:00 17,9 13,8 1006,0
28.07.2020 17:00:00 18,3 13,9 1006,4
28.07.2020 16:00:00 18,1 14,2 1007,4
28.07.2020 15:00:00 19,2 13,4 1007,8
28.07.2020 14:00:00 19,9 12,4 1008,1
28.07.2020 13:00:00 19,9 12,9 1008,7

tt = Température de l'air
td = dewpoint
ppp = reduced air pressure

stations d'obs. à proximité